Regional Weather Roundup
Issued by NWS

Home | Current Version | Previous Version | Graphics & Text | Print | Product List | Glossary On
Versions: 1 2 3 4 5 6 7 8 9 10 11 12 13 14 15 16 17 18 19 20 21 22 23 24 25 26 27 28 29 30 31 32 33 34 35 36 37 38 39 40 41 42 43 44 45 46 47 48 49 50
000
ASUS43 KLOT 260308
RWRIL

ILLINOIS REGIONAL WEATHER ROUNDUP
NATIONAL WEATHER SERVICE CHICAGO/ROMEOVILLE IL
1000 PM CDT SAT APR 25 2015

NOTE: "FAIR" INDICATES FEW OR NO CLOUDS BELOW 12,000 FEET WITH NO
SIGNIFICANT WEATHER AND/OR OBSTRUCTIONS TO VISIBILITY.

* THESE STATIONS ARE NOT UNDER NWS QUALITY CONTROL. THEY ALSO MAY NOT
  REPORT WEATHER SUCH AS PRECIPITATION OR FOG.

ILZ001-002-007-009-015-016-024-260400-
NORTHWEST ILLINOIS

CITY           SKY/WX    TMP DP  RH WIND       PRES   REMARKS
MOLINE         CLOUDY    46  36  68 NE14      29.85R
STERLING*      CLOUDY    45  34  65 NE10      29.86R
SAVANNA*       CLOUDY    46  35  65 NE8       29.87R
$$

ILZ003-004-008-010-011-017-018-260400-
NORTH CENTRAL ILLINOIS

CITY           SKY/WX    TMP DP  RH WIND       PRES   REMARKS
ROCKFORD       MOCLDY    44  27  51 NE10      29.89R
FREEPORT*      CLOUDY    41  35  77 NE5       29.89R
ROCHELLE*      CLOUDY    41  32  70 NE12      29.86R
DE KALB*       CLOUDY    39  30  70 N12       29.86R WCI  32
PERU*          CLOUDY    45  37  76 NE16      29.83R
$$

ILZ005-006-012>014-019>023-260400-
NORTHEAST ILLINOIS

CITY           SKY/WX    TMP DP  RH WIND       PRES   REMARKS
CHICAGO-OHARE  CLOUDY    41  30  65 NE13      29.84S
CHICAGO-MIDWAY CLOUDY    43  33  68 N12       29.84S
AURORA         CLOUDY    42  30  62 NE12      29.84R
LANSING*       CLOUDY    42  35  77 N12       29.83S
JOLIET*        CLOUDY    44  35  71 NE10      29.83S
WAUKEGAN       CLOUDY    41  27  57 N12G20    29.85S
DUPAGE AIRPORT CLOUDY    41  29  62 NE13      29.84R
KANKAKEE*      CLOUDY    45  42  88 NE12      29.81R
WHEELING       CLOUDY    42  27  55 N8        29.86S
MORRIS*        CLOUDY    43  36  76 NE6       29.80S
ROMEOVILLE*    CLOUDY    41  33  73 NE12      29.83R
NORTHERLY ISL    N/A     40  33  76 N13         N/A
$$

LMZ740>746-260400-
SOUTHERN LAKE MICHIGAN

STATION/POSITION SKY/WX   TEMP    WIND        PRES    VSBY  WAVE
                          AIR SEA DIR/SP/G                  HT/PER
                          (F)     (DEG/KT/KT) (MB)    (MI)  (FT/S)
HARRISON CRIB              39     350/ 17/ 19   N/A
BURNHAM HARBOR             40     360/ 12/ 15   N/A
CALUMET HARBOR             40     340/ 12/ 16   N/A
BURNS HARBOR               42      30/ 14/ 17 1010.5R
MICHIGAN CITY              40     360/ 14/ 16   N/A
MICHIGAN CITY 6N           39 45   20/ 12/ 14   N/A           2/ 4
$$

ILZ025>027-034>036-040-047-049-050-058-095>099-260400-
WEST-CENTRAL ILLINOIS

CITY           SKY/WX    TMP DP  RH WIND       PRES   REMARKS
QUINCY         CLOUDY    48  44  86 NE13      29.77R
GALESBURG*     CLOUDY    45  42  88 NE16G22   29.82R
MACOMB*        CLOUDY    46  42  87 NE18      29.83R
JACKSONVILLE*  CLOUDY    49  45  86 NE16G22   29.76R
PITTSFIELD*    CLOUDY    48  45  88 NE13G18   29.77R
$$

ILZ028>032-037-038-041>044-048-051>054-059>061-260400-
CENTRAL ILLINOIS

CITY           SKY/WX    TMP DP  RH WIND       PRES   REMARKS
PONTIAC        CLOUDY    46  43  88 NE16      29.80R
BLOOMINGTON    CLOUDY    45  43  93 NE16      29.78R
DECATUR        CLOUDY    47  42  83 NE23      29.73R
PEORIA         CLOUDY    48  40  73 NE12      29.80R
LACON*         CLOUDY    45  39  80 NE12G17   29.81R
LINCOLN*       CLOUDY    47  43  84 NE15G25   29.76R
SPRINGFIELD    CLOUDY    48  43  82 NE18G26   29.75R
TAYLORVILLE    CLOUDY    45  43  93 NE16G23   29.74R
$$

ILZ033-039-045-046-055>057-062-063-260400-
EAST-CENTRAL ILLINOIS

CITY           SKY/WX    TMP DP  RH WIND       PRES   REMARKS
CHAMPAIGN      CLOUDY    46  42  86 NE20G28   29.74R
DANVILLE*      CLOUDY    44  41  91 NE16      29.72R
RANTOUL*       CLOUDY    46  43  88 NE20G26   29.76R
MATTOON        LGT RAIN  45  42  89 NE17G28   29.70R FOG
PARIS*         CLOUDY    46  44  91 NE14G22   29.73R
$$

ILZ079-100>102-260400-
SOUTHWEST ILLINOIS

CITY           SKY/WX    TMP DP  RH WIND       PRES   REMARKS
ALTON          CLOUDY    50  48  93 N18       29.71R
CAHOKIA*       CLOUDY    54  52  93 NE9       29.69R
SPARTA*        CLOUDY    54  53  96 N13G18    29.66R
$$

ILZ064>066-069>071-074>076-080>082-084>086-088>090-092>094-260400-
SOUTH-CENTRAL ILLINOIS

CITY           SKY/WX    TMP DP  RH WIND       PRES   REMARKS
CARBONDALE     CLOUDY    58  56  93 N10       29.62R
CAIRO*         CLOUDY    64  58  80 NW5       29.60R
EFFINGHAM*     CLOUDY    47  45  91 N7G18     29.70R FOG
MARION         CLOUDY    59  57  94 N8        29.63R
MT. VERNON     CLOUDY    54  48  82 N12G17    29.66R
CENTRALIA*     CLOUDY    51  48  92 N14G21    29.67R FOG
SALEM*         CLOUDY    52  49  90 N16G23    29.67R FOG
METROPOLIS*    CLOUDY    61  61 100 CALM      29.60R FOG
$$

ILZ067-068-072-073-078-083-087-091-260400-
SOUTHEAST ILLINOIS

CITY           SKY/WX    TMP DP  RH WIND       PRES   REMARKS
LAWRENCEVILLE  CLOUDY    49  46  90 N16       29.67R
FLORA*         CLOUDY    50  48  91 N16G22    29.67R
FAIRFIELD*     CLOUDY    52  49  91 N14G24    29.64R
HARRISBURG*    CLOUDY    57  57 100 N10       29.62R FOG
ROBINSON*      CLOUDY    48  46  92 NE16      29.68R
CARMI*         CLOUDY    55  50  85 N14       29.62R
$$

ABBREVIATIONS USED IN REMARKS
   TC - TEMPERATURE IN CELSIUS
  WCI - WIND CHILL INDEX
   HX - HEAT INDEX
  VSB - VISIBILITY
$$




USA.gov is the U.S. government's official web portal to all federal, state and local government web resources and services.